Orbital Elements
Epoch 2014 Oct. 30.0 TT = JDT 2456960.5
T 2014 Oct. 20.76530 TT MPCW
q 2.0067838 (2000.0) P Q
n 0.13984434 Peri. 1.99046 -0.51876513 -0.84901672
a 3.6759770 Node 119.27245 +0.78277420 -0.51886492
e 0.4540815 Incl. 6.60041 +0.34372560 -0.09974872
P 7.05
From 616 observations 1970 Dec. 29-2015 Jan. 2, mean residual 0".7.
Nongravitational parameters A1 = +0.01, A2 = -0.0078.
|